Weather History for Ruidoso, NM

Change the Weather History Date:

Wednesday, March 20, 2013

  Actual Average Record
Temperature  
Mean Temperature 44 °F -  
Max Temperature 57 °F 57 °F 75 °F (2004)
Min Temperature 30 °F 34 °F 23 °F (2012)
Degree Days  
Heating Degree Days 22    
Moisture  
Dew Point 21 °F    
Average Humidity 43    
Maximum Humidity 64    
Minimum Humidity 23    
Precipitation  
Precipitation 0.00 in - - ()
Sea Level Pressure  
Sea Level Pressure 30.20 in    
Wind  
Wind Speed 8 mph (South)    
Max Wind Speed 26 mph    
Max Gust Speed 36 mph    
Visibility 10 miles    
Events      
Averages and records for this station are not official NWS values.
T = Trace of Precipitation, MM = Missing Value Source: NWS Daily Summary

Daily Weather History Graph

Daily Weather History Graph

Search for Another Location

Airport:

Trip Planner

Search our weather history database for the weather conditions in past years. The results will help you decide how hot, cold, wet, or windy it might be!

Date:

Astronomy

Mar. 20, 2013 Rise Set
Actual Time 7:05 AM MDT 7:13 PM MDT
Civil Twilight 6:40 AM MDT 7:38 PM MDT
Nautical Twilight 6:11 AM MDT 8:07 PM MDT
Astronomical Twilight 5:42 AM MDT 8:37 PM MDT
Moon 1:06 PM MDT (3/20) 2:31 AM MDT (3/20)
Length of Visible Light 12h 58m
Length of Day
12h 08m
First Quarter, 60% of the Moon is Illuminated
Mar 20
First Quarter
Mar 27
Full
Apr 2
Last Quarter
Apr 10
New
Apr 18
First Quarter

Hourly Weather History & Observations

Time (MDT) Temp. Windchill Dew Point Humidity Pressure Visibility Wind Dir Wind Speed Gust Speed Precip Events Conditions
12:15 AM 35.6 °F 29.2 °F 17.6 °F 48% 30.30 in 10.0 mi SE 8.1 mph - N/A   Clear
12:35 AM 35.6 °F 29.2 °F 17.6 °F 48% 30.30 in 10.0 mi SE 8.1 mph - N/A   Clear
12:55 AM 33.8 °F 28.6 °F 17.6 °F 52% 30.30 in 10.0 mi SSE 5.8 mph - N/A   Clear
1:15 AM 35.6 °F - 15.8 °F 44% 30.30 in 10.0 mi Calm Calm - N/A   Clear
1:35 AM 35.6 °F 31.7 °F 17.6 °F 48% 30.30 in 10.0 mi SSE 4.6 mph - N/A   Clear
1:55 AM 33.8 °F 30.8 °F 17.6 °F 52% 30.30 in 10.0 mi SE 3.5 mph - N/A   Clear
2:15 AM 32.0 °F 28.7 °F 15.8 °F 51% 30.30 in 10.0 mi ESE 3.5 mph - N/A   Clear
2:35 AM 32.0 °F 27.5 °F 17.6 °F 55% 30.30 in 10.0 mi SSE 4.6 mph - N/A   Clear
2:55 AM 32.0 °F 28.7 °F 17.6 °F 55% 30.30 in 10.0 mi South 3.5 mph - N/A   Clear
3:15 AM 32.0 °F - 17.6 °F 55% 30.30 in 10.0 mi Calm Calm - N/A   Clear
3:35 AM 33.8 °F 30.8 °F 17.6 °F 52% 30.29 in 10.0 mi South 3.5 mph - N/A   Clear
3:55 AM 32.0 °F 26.4 °F 15.8 °F 51% 30.29 in 10.0 mi SW 5.8 mph - N/A   Clear
4:15 AM 32.0 °F 26.4 °F 17.6 °F 55% 30.28 in 10.0 mi SSW 5.8 mph - N/A   Clear
4:35 AM 32.0 °F 26.4 °F 17.6 °F 55% 30.27 in 10.0 mi South 5.8 mph - N/A   Clear
4:55 AM 32.0 °F - 17.6 °F 55% 30.28 in 10.0 mi Calm Calm - N/A   Clear
5:15 AM 32.0 °F 27.5 °F 17.6 °F 55% 30.28 in 10.0 mi South 4.6 mph - N/A   Clear
5:35 AM 32.0 °F 26.4 °F 17.6 °F 55% 30.28 in 10.0 mi SSE 5.8 mph - N/A   Clear
5:55 AM 30.2 °F 24.3 °F 17.6 °F 60% 30.29 in 10.0 mi SSE 5.8 mph - N/A   Clear
6:15 AM 30.2 °F 24.3 °F 17.6 °F 60% 30.30 in 10.0 mi South 5.8 mph - N/A   Clear
6:35 AM 30.2 °F 25.4 °F 17.6 °F 60% 30.31 in 10.0 mi South 4.6 mph - N/A   Clear
6:55 AM 30.2 °F 25.4 °F 17.6 °F 60% 30.31 in 10.0 mi SE 4.6 mph - N/A   Clear
7:15 AM 30.2 °F 24.3 °F 17.6 °F 60% 30.32 in 10.0 mi SE 5.8 mph - N/A   Clear
7:35 AM 30.2 °F 26.7 °F 19.4 °F 64% 30.32 in 10.0 mi SSE 3.5 mph - N/A   Clear
7:55 AM 32.0 °F 28.7 °F 19.4 °F 60% 30.33 in 10.0 mi South 3.5 mph - N/A   Clear
8:15 AM 32.0 °F 28.7 °F 19.4 °F 60% 30.32 in 10.0 mi ESE 3.5 mph - N/A   Clear
8:35 AM 35.6 °F 29.9 °F 21.2 °F 56% 30.32 in 10.0 mi SSE 6.9 mph - N/A   Clear
8:55 AM 35.6 °F 28.6 °F 21.2 °F 56% 30.33 in 10.0 mi SSE 9.2 mph - N/A   Clear
9:15 AM 37.4 °F 31.4 °F 21.2 °F 52% 30.33 in 10.0 mi ESE 8.1 mph - N/A   Clear
9:35 AM 39.2 °F 33.0 °F 23.0 °F 52% 30.32 in 10.0 mi SSE 9.2 mph - N/A   Clear
9:55 AM 39.2 °F 33.0 °F 23.0 °F 52% 30.32 in 10.0 mi SE 9.2 mph - N/A   Clear
10:15 AM 41.0 °F 35.8 °F 23.0 °F 49% 30.31 in 10.0 mi SE 8.1 mph - N/A   Clear
10:35 AM 42.8 °F 37.5 °F 23.0 °F 46% 30.31 in 10.0 mi SE 9.2 mph 16.1 mph N/A   Clear
10:55 AM 44.6 °F 39.7 °F 24.8 °F 46% 30.30 in 10.0 mi SE 9.2 mph - N/A   Clear
11:15 AM 46.4 °F 41.9 °F 24.8 °F 43% 30.29 in 10.0 mi SSE 9.2 mph - N/A   Partly Cloudy
11:35 AM 46.4 °F 42.4 °F 24.8 °F 43% 30.29 in 10.0 mi ESE 8.1 mph - N/A   Partly Cloudy
11:55 AM 48.2 °F - 24.8 °F 40% 30.28 in 10.0 mi SSE 8.1 mph - N/A   Partly Cloudy
12:15 PM 48.2 °F - 24.8 °F 40% 30.27 in 10.0 mi ESE 8.1 mph - N/A   Clear
12:35 PM 48.2 °F - 24.8 °F 40% 30.26 in 10.0 mi ESE 9.2 mph - N/A   Partly Cloudy
12:55 PM 50.0 °F - 24.8 °F 37% 30.25 in 10.0 mi SE 8.1 mph - N/A   Partly Cloudy
1:15 PM 50.0 °F - 24.8 °F 37% 30.23 in 10.0 mi SE 4.6 mph - N/A   Partly Cloudy
1:35 PM 51.8 °F - 24.8 °F 35% 30.21 in 10.0 mi SE 10.4 mph - N/A   Clear
1:55 PM 53.6 °F - 24.8 °F 33% 30.20 in 10.0 mi SE 5.8 mph - N/A   Clear
2:15 PM 53.6 °F - 24.8 °F 33% 30.18 in 10.0 mi SSE 10.4 mph - N/A   Clear
2:35 PM 53.6 °F - 24.8 °F 33% 30.16 in 10.0 mi SE 5.8 mph 16.1 mph N/A   Clear
2:55 PM 53.6 °F - 24.8 °F 33% 30.15 in 10.0 mi SSE 11.5 mph 20.7 mph N/A   Partly Cloudy
3:15 PM 53.6 °F - 26.6 °F 35% 30.14 in 10.0 mi SE 11.5 mph 18.4 mph N/A   Partly Cloudy
3:35 PM 55.4 °F - 17.6 °F 23% 30.13 in 10.0 mi SSW 13.8 mph 23.0 mph N/A   Partly Cloudy
3:55 PM 55.4 °F - 17.6 °F 23% 30.12 in 10.0 mi SW 17.3 mph 23.0 mph N/A   Scattered Clouds
4:15 PM 55.4 °F - 17.6 °F 23% 30.10 in 10.0 mi South 17.3 mph 24.2 mph N/A   Partly Cloudy
4:35 PM 57.2 °F - 19.4 °F 23% 30.09 in 10.0 mi SSW 15.0 mph 24.2 mph N/A   Partly Cloudy
4:55 PM 55.4 °F - 19.4 °F 25% 30.09 in 10.0 mi SSW 17.3 mph 20.7 mph N/A   Partly Cloudy
5:15 PM 55.4 °F - 19.4 °F 25% 30.09 in 10.0 mi SW 17.3 mph 25.3 mph N/A   Clear
5:35 PM 55.4 °F - 19.4 °F 25% 30.09 in 10.0 mi SW 18.4 mph 21.9 mph N/A   Clear
5:55 PM 55.4 °F - 19.4 °F 25% 30.07 in 10.0 mi SSW 19.6 mph 27.6 mph N/A   Clear
6:15 PM 53.6 °F - 23.0 °F 30% 30.07 in 10.0 mi SW 18.4 mph 25.3 mph N/A   Clear
6:35 PM 53.6 °F - 23.0 °F 30% 30.07 in 10.0 mi SW 19.6 mph 24.2 mph N/A   Clear
6:55 PM 51.8 °F - 23.0 °F 33% 30.07 in 10.0 mi SW 13.8 mph 23.0 mph N/A   Clear
7:15 PM 50.0 °F - 23.0 °F 35% 30.07 in 10.0 mi SSW 10.4 mph - N/A   Clear
7:35 PM 50.0 °F - 23.0 °F 35% 30.06 in 10.0 mi South 10.4 mph 16.1 mph N/A   Clear
7:55 PM 48.2 °F - 23.0 °F 37% 30.05 in 10.0 mi SSW 6.9 mph - N/A   Clear
8:15 PM 48.2 °F - 24.8 °F 40% 30.04 in 10.0 mi SW 18.4 mph 25.3 mph N/A   Clear
8:35 PM 48.2 °F - 24.8 °F 40% 30.03 in 10.0 mi SW 15.0 mph 24.2 mph N/A   Clear
8:55 PM 50.0 °F - 24.8 °F 37% 30.02 in 10.0 mi SW 17.3 mph 24.2 mph N/A   Clear
9:15 PM 50.0 °F - 23.0 °F 35% 30.02 in 10.0 mi SW 18.4 mph 24.2 mph N/A   Clear
9:35 PM 50.0 °F - 24.8 °F 37% 30.01 in 10.0 mi SW 18.4 mph 26.5 mph N/A   Clear
9:55 PM 50.0 °F - 23.0 °F 35% 30.02 in 10.0 mi WSW 15.0 mph 23.0 mph N/A   Clear
10:15 PM 50.0 °F - 23.0 °F 35% 30.00 in 10.0 mi SW 26.5 mph 35.7 mph N/A   Clear
10:35 PM 50.0 °F - 23.0 °F 35% 29.99 in 10.0 mi SW 25.3 mph 32.2 mph N/A   Clear
10:55 PM 50.0 °F - 21.2 °F 32% 29.98 in 10.0 mi SW 24.2 mph 31.1 mph N/A   Clear
11:35 PM 48.2 °F - 19.4 °F 32% 29.98 in 10.0 mi WSW 11.5 mph - N/A   Clear